SPACEMOBILE-001

Last updated on Sat Aug 15 2026 00:02:08 GMT+0000 (Coordinated Universal Time)

1 61047U 24163C 26226.49381273 .00001226 00000+0 70065-4 0 9991 2 61047 52.9724 40.9916 0005536 309.0808 50.9693 15.20533115106639
UTC large
Height (km)
Speed (km/s)
/
Latitude / Longitude
Inclination (degrees)
Orbital Period (minutes)
Azimuth
Elevation
Range (km)
Doppler Factor

Next 0 passes for location: London (51.5072 / 0.1276)

No passes found over London.
SPACEMOBILE-001